Weather History for KPKB - June, 2013

Change the Weather History Date:

Sunday, June 16, 2013

  Actual Average Record
Temperature  
Mean Temperature 70 °F 71 °F  
Max Temperature 74 °F 82 °F 97 °F (1936)
Min Temperature 65 °F 60 °F 44 °F (1917)
Degree Days  
Heating Degree Days 0 0  
Month to date heating degree days 6 18  
Since 1 June heating degree days 6 18  
Since 1 July heating degree days 5003 4971  
Cooling Degree Days 5 7  
Month to date cooling degree days 70 81  
Year to date cooling degree days 196 165  
Since 1 June cooling degree days 70 81  
Growing Degree Days 20 (Base 50)    
Moisture  
Dew Point 63 °F    
Average Humidity 81    
Maximum Humidity 93    
Minimum Humidity 68    
Precipitation  
Precipitation 0.10 in 0.14 in 0.50 in (2000)
Month to date precipitation 4.03 2.28  
Year to date precipitation 16.85 19.23  
Sea Level Pressure  
Sea Level Pressure 30.01 in    
Wind  
Wind Speed 6 mph (SSW)    
Max Wind Speed 17 mph    
Max Gust Speed 22 mph    
Visibility 9 miles    
Events Rain    
T = Trace of Precipitation, MM = Missing Value Source: NWS Daily Summary

Daily Weather History Graph

Daily Weather History Graph

Search for Another Location

Airport or City:

Trip Planner

Search our weather history database for the weather conditions in past years. The results will help you decide how hot, cold, wet, or windy it might be!

Date:

Astronomy

Jun. 16, 2013 Rise Set
Actual Time 5:58 AM EDT 8:54 PM EDT
Civil Twilight 5:26 AM EDT 9:27 PM EDT
Nautical Twilight 4:45 AM EDT 10:07 PM EDT
Astronomical Twilight 3:58 AM EDT 10:55 PM EDT
Moon 1:30 PM EDT (6/16) 1:00 AM EDT (6/16)
Length of Visible Light 16h 00m
Length of Day
14h 56m
Waxing Crescent, 49% of the Moon is Illuminated
Jun 16
Waxing Crescent
Jun 16
First Quarter
Jun 23
Full
Jun 30
Last Quarter
Jul 8
New

Hourly Weather History & Observations

Time (EDT) Temp. Dew Point Humidity Pressure Visibility Wind Dir Wind Speed Gust Speed Precip Events Conditions
12:53 AM 66.9 °F 60.1 °F 79% 30.04 in 9.0 mi Calm Calm - N/A   Overcast
1:53 AM 66.0 °F 61.0 °F 84% 30.01 in 8.0 mi Calm Calm - N/A   Overcast
2:53 AM 68.0 °F 59.0 °F 73% 30.00 in 10.0 mi South 3.5 mph - N/A   Mostly Cloudy
3:53 AM 68.0 °F 57.9 °F 70% 29.99 in 10.0 mi South 6.9 mph - N/A   Overcast
4:53 AM 66.9 °F 57.9 °F 73% 29.99 in 10.0 mi SSW 6.9 mph - N/A   Overcast
5:53 AM 66.9 °F 57.9 °F 73% 30.00 in 10.0 mi SSW 6.9 mph - N/A   Mostly Cloudy
6:53 AM 66.9 °F 59.0 °F 76% 30.00 in 10.0 mi South 5.8 mph - N/A   Overcast
7:53 AM 69.1 °F 60.1 °F 73% 30.02 in 10.0 mi WSW 5.8 mph - N/A   Overcast
8:53 AM 70.0 °F 61.0 °F 73% 30.03 in 10.0 mi SSW 3.5 mph - N/A   Overcast
9:11 AM 68.0 °F 62.6 °F 83% 30.05 in 6.0 mi South 3.5 mph - 0.00 in Rain Light Rain
9:53 AM 68.0 °F 64.0 °F 87% 30.03 in 9.0 mi SSW 6.9 mph - 0.01 in Rain Light Rain
10:53 AM 70.0 °F 64.9 °F 84% 30.03 in 10.0 mi SW 6.9 mph - 0.00 in Rain Light Rain
11:53 AM 69.1 °F 64.9 °F 87% 30.04 in 7.0 mi SW 8.1 mph - 0.00 in Rain Light Rain
12:53 PM 72.0 °F 66.9 °F 84% 30.01 in 10.0 mi SW 11.5 mph 18.4 mph 0.01 in   Mostly Cloudy
1:53 PM 73.0 °F 64.9 °F 76% 30.01 in 10.0 mi SW 9.2 mph 18.4 mph N/A   Mostly Cloudy
2:53 PM 73.0 °F 64.9 °F 76% 30.00 in 10.0 mi WSW 11.5 mph 18.4 mph N/A   Mostly Cloudy
3:53 PM 72.0 °F 66.0 °F 81% 30.01 in 9.0 mi WSW 6.9 mph - 0.00 in Rain Light Rain
4:53 PM 70.0 °F 66.9 °F 90% 30.01 in 4.0 mi SW 8.1 mph - 0.05 in Rain Light Rain
5:53 PM 70.0 °F 66.9 °F 90% 30.01 in 10.0 mi SW 8.1 mph - 0.03 in   Overcast
6:53 PM 70.0 °F 66.9 °F 90% 30.00 in 10.0 mi SW 4.6 mph - 0.00 in   Overcast
7:53 PM 70.0 °F 66.9 °F 90% 30.00 in 10.0 mi SW 3.5 mph - N/A   Overcast
8:53 PM 69.1 °F 66.9 °F 93% 30.00 in 10.0 mi SSE 3.5 mph - N/A   Mostly Cloudy
9:53 PM 68.0 °F 66.0 °F 93% 30.00 in 9.0 mi Calm Calm - N/A   Partly Cloudy
10:53 PM 66.9 °F 64.9 °F 93% 30.01 in 10.0 mi SSW 5.8 mph - N/A   Mostly Cloudy
11:53 PM 66.9 °F 64.9 °F 93% 30.00 in 10.0 mi Calm Calm - N/A   Mostly Cloudy